RH
24 27 30 28 19 15 19 25 24 23 25 23 30 34 32 37 35 32 31 28 30 35 33 35 39 42 48 42 46 51 52 64 84 97 99 98 98 98
32 32 30 22 16 20 27 28 22 24 24 33 36 38 38 35 36 33 26 28 38 40 40 36 36 38 40 40 30 35 49 64 84 98 99 99 99 99
34 30 24 19 23 28 34 26 27 26 38 37 44 42 39 29 36 35 30 37 36 30 16 5 5 5 8 11 10 7 37 50 73 89 99 100 98 98
30 23 22 25 31 38 32 30 33 41 43 41 40 42 22 8 6 28 36 14 5 4 4 4 5 5 6 6 6 8 10 59 97 97 98 97 93 100
26 28 32 40 40 35 34 43 43 42 28 7 12 15 12 8 10 10 8 9 10 12 14 16 16 15 12 9 7 6 5 8 37 75 95 100 100 100
34 42 45 42 42 44 44 40 18 9 13 16 18 19 20 21 22 23 23 23 24 24 23 22 21 18 13 9 7 6 5 4 4 11 24 73 92 93
49 48 48 47 40 19 11 12 15 18 22 23 25 25 27 26 27 27 26 25 24 23 21 20 18 17 16 14 11 8 6 4 3 3 3 8 18 15
53 53 37 12 11 14 18 22 24 26 26 29 28 30 30 29 28 26 25 24 24 22 20 20 17 16 12 9 7 6 4 4 4 3 3 3 3 4
45 18 10 13 19 23 25 28 30 30 33 34 34 32 30 28 26 25 25 24 23 21 20 19 17 16 14 13 12 9 7 6 5 5 5 5 4 4
10 11 16 23 26 30 30 33 37 38 38 39 40 40 36 32 28 27 26 25 25 25 25 25 24 24 22 19 17 14 10 8 7 6 6 6 6 6
15 22 25 29 31 33 36 36 38 40 41 42 45 47 46 43 36 33 32 32 32 33 33 34 32 31 30 28 24 20 16 13 11 10 9 9 9 10
25 29 33 34 33 35 35 35 36 37 40 46 51 52 50 48 46 44 42 42 42 43 40 40 40 38 37 33 28 23 18 15 13 12 12 12 13 13
29 34 35 35 34 35 35 35 36 39 44 52 55 55 55 53 49 46 45 46 47 49 49 47 45 42 36 29 24 23 19 17 16 14 13 14 16 18
31 34 35 35 35 35 36 36 37 41 47 55 60 60 58 58 58 57 57 57 56 55 54 52 45 40 36 31 26 24 21 19 17 15 14 15 20 24
31 32 33 33 34 35 36 36 37 42 46 51 63 66 64 62 61 61 61 60 59 57 55 52 46 40 37 36 33 27 22 20 18 16 16 20 24 26
29 30 32 32 33 34 35 35 36 39 44 53 66 71 70 66 64 63 61 60 60 59 55 52 46 42 38 37 34 26 22 21 21 20 20 26 29 30
27 28 30 31 32 33 34 35 36 38 44 59 74 76 72 69 68 66 64 63 63 64 61 55 48 43 40 38 31 27 26 26 24 25 26 30 32 34
27 28 29 31 32 33 34 36 38 56 51 65 79 82 79 76 73 70 69 68 68 69 66 58 47 43 42 37 35 30 28 27 28 30 31 30 30 37
58 89 62 34 32 33 45 90 89 66 79 78 86 89 86 83 79 77 76 74 74 74 68 58 50 48 50 42 33 30 30 31 31 35 36 36 31 35
30 31 36 43 58 92 96 97 98 97 98 92 94 95 91 88 86 83 82 79 79 79 72 61 53 53 53 44 34 32 32 31 34 41 50 52 50 48
55 69 88 96 95 97 96 97 99 99 99 99 98 96 95 92 91 89 86 84 82 82 76 62 59 59 52 41 36 32 34 46 56 56 54 50 47 42
96 96 98 98 98 97 96 97 96 96 96 96 96 96 96 95 94 91 89 86 86 85 77 69 68 62 49 42 36 34 38 53 64 63 56 50 45 35
96 96 96 96 96 96 96 96 96 96 96 95 95 96 96 95 95 94 91 89 90 87 79 77 75 58 49 41 36 36 41 52 57 56 57 72 70 65
Wind_Speed
31 31 30 29 28 27 26 24 24 26 24 22 21 22 22 22 24 23 20 15 14 15 14 14 15 15 16 16 15 17 19 24 25 33 31 26 19 26
30 30 29 28 26 25 24 23 23 23 23 22 21 20 19 18 18 18 15 14 15 15 14 14 14 16 15 15 12 12 13 8 16 14 30 23 25 28
30 29 27 26 25 24 23 22 21 21 21 20 19 17 15 13 13 14 13 14 14 13 13 15 15 16 17 18 18 15 12 10 11 24 23 39 34 32
29 27 26 25 23 22 20 19 19 19 18 16 16 12 13 13 13 13 13 13 16 16 16 17 19 19 19 19 20 19 16 15 19 23 29 34 38 39
26 24 23 21 19 17 17 16 16 13 11 10 11 12 14 15 15 16 17 18 19 20 20 21 21 21 21 21 21 21 20 19 20 24 29 34 39 40
24 21 19 16 16 15 13 11 9 10 12 13 14 15 16 18 19 20 20 21 22 22 22 22 22 22 22 21 20 21 22 21 22 22 24 27 30 31
19 16 15 12 10 8 8 9 11 12 14 16 16 16 17 18 20 20 20 22 20 21 22 21 22 22 21 21 20 21 21 21 22 24 26 26 25 26
15 12 10 10 9 10 10 11 13 14 15 16 17 18 17 18 19 20 20 21 20 20 22 21 20 21 20 20 20 21 20 20 21 22 24 26 28 29
13 12 11 11 10 11 12 13 13 14 15 16 17 17 18 19 18 21 20 20 19 19 19 20 20 19 19 20 21 21 22 22 22 22 22 24 25 27
13 12 12 12 11 12 12 12 13 14 14 15 17 18 19 20 19 21 20 20 19 20 20 20 21 21 21 20 22 23 24 24 24 24 24 24 24 25
13 12 12 13 12 12 12 13 13 14 16 17 18 19 19 19 20 20 21 20 21 20 22 22 21 23 23 23 23 24 24 25 26 26 26 25 26 25
13 12 12 13 13 13 14 15 14 16 17 18 19 19 19 20 20 21 22 22 22 22 23 22 24 24 24 25 26 25 26 27 27 28 28 28 28 27
14 14 14 14 14 16 17 16 16 17 18 18 18 18 18 20 21 21 21 23 23 24 23 24 24 24 24 24 26 26 27 29 30 30 30 30 30 30
15 15 16 16 17 18 18 18 18 18 18 19 20 20 20 20 21 21 22 22 23 24 25 24 24 25 25 25 25 27 29 31 32 32 31 32 32 31
17 18 18 18 19 19 19 20 20 20 21 21 22 22 22 23 22 23 23 23 23 24 24 25 26 26 27 27 26 25 27 29 31 32 33 33 31 30
20 20 20 21 21 20 21 22 22 22 23 23 23 23 24 24 24 23 23 22 23 25 26 27 28 28 28 28 28 27 29 28 28 31 32 30 29 28
22 22 22 23 23 23 23 24 24 24 24 25 25 25 25 24 25 24 23 23 24 25 26 27 28 30 29 28 27 28 28 28 30 31 32 29 26 26
24 23 24 26 26 25 25 25 25 26 27 27 27 26 26 25 25 25 24 25 26 27 27 28 28 28 29 26 29 27 27 29 31 32 31 29 23 24
25 28 28 29 28 27 29 30 27 29 29 29 29 28 27 26 25 25 25 26 27 27 27 29 29 31 31 28 24 28 27 29 31 29 29 27 23 22
28 28 29 31 34 37 33 30 30 30 31 31 31 31 29 27 26 26 27 27 28 27 27 29 30 32 32 31 28 23 29 30 29 26 25 26 26 27
34 37 38 38 38 37 35 31 30 31 32 33 33 32 31 29 27 27 28 29 29 29 28 28 30 32 33 32 29 24 23 28 30 29 28 30 29 30
31 32 32 33 33 32 32 30 32 34 34 34 33 32 30 29 27 28 29 29 30 30 30 29 30 31 32 33 31 28 23 25 28 30 31 34 33 31
31 32 34 34 34 34 34 35 36 35 33 32 32 30 29 27 28 28 29 29 30 30 31 31 31 31 31 33 33 29 26 26 28 29 26 30 32 32
Wind_Direction
281 281 281 280 279 279 282 283 285 286 288 291 292 291 291 293 293 293 290 282 284 287 290 294 294 295 284 290 272 281 288 270 258 264 249 238 259 241
280 279 277 276 277 279 280 282 280 282 284 289 290 289 289 291 291 290 286 279 285 285 288 289 291 291 290 296 292 296 289 263 243 232 226 230 238 258
279 277 276 276 277 277 277 275 275 277 282 286 285 284 284 291 292 288 283 281 284 287 288 294 294 297 300 300 303 307 300 291 251 235 249 252 245 247
277 276 275 276 275 274 273 272 274 277 280 280 276 272 274 291 293 292 288 283 291 289 290 295 296 298 299 299 300 299 289 268 251 249 249 248 260 258
277 276 275 273 272 269 269 272 272 269 265 276 282 283 284 291 293 293 292 292 292 293 294 295 295 296 296 293 292 292 290 280 261 254 247 251 254 257
273 271 268 266 265 266 263 255 251 262 271 280 282 286 291 292 293 294 294 293 296 296 297 296 296 295 295 294 293 289 287 285 278 269 260 255 252 254
265 262 260 258 244 231 239 255 266 273 280 283 286 291 292 292 294 296 298 295 296 296 294 294 298 296 297 295 291 291 290 287 283 283 283 280 269 267
251 245 233 227 231 247 254 264 272 277 281 287 292 291 294 293 295 294 293 295 296 296 296 299 297 297 298 297 296 296 294 291 287 283 280 279 281 282
224 220 223 237 246 257 265 270 275 281 288 292 295 297 300 297 297 296 294 294 296 296 296 299 297 299 298 298 296 295 293 291 289 285 281 278 275 274
220 227 236 247 256 263 270 278 284 288 293 299 302 303 300 298 298 295 294 295 295 296 297 298 298 299 299 299 298 297 295 292 290 288 286 283 278 273
224 233 244 253 259 266 272 276 285 293 298 302 304 301 299 299 297 294 293 295 295 297 297 297 298 300 301 301 299 297 294 293 291 288 284 281 278 275
235 242 249 256 263 269 274 279 288 294 301 306 305 303 302 299 296 294 294 295 295 295 296 298 299 300 300 299 297 296 295 292 289 286 284 283 281 277
244 250 256 263 269 274 278 285 292 298 306 307 308 306 302 298 296 295 295 295 297 298 298 297 297 298 298 298 298 299 296 292 289 287 284 281 277 275
251 256 262 268 272 275 282 289 292 298 303 308 310 309 305 300 298 297 297 298 298 298 298 298 297 298 299 299 300 299 296 293 291 289 285 280 279 280
256 260 265 269 272 278 283 287 291 296 302 306 309 308 306 305 302 300 299 300 300 300 301 302 302 302 302 302 301 296 292 292 292 289 286 284 283 280
262 267 269 272 274 279 283 287 290 294 299 303 305 305 306 304 302 300 299 302 304 304 305 304 303 302 303 303 303 301 298 297 291 286 283 284 284 284
267 269 272 274 277 279 282 285 288 292 296 300 301 303 305 303 300 298 299 301 303 302 301 301 300 300 302 303 303 302 301 298 292 288 288 288 286 281
268 272 276 277 276 278 281 284 287 289 292 295 297 298 301 302 297 295 297 301 302 300 300 299 298 298 300 303 303 304 302 296 291 291 293 293 287 278
268 268 272 277 279 280 278 281 285 287 289 291 294 295 297 299 296 295 298 302 301 299 299 298 298 298 300 302 302 303 299 292 292 294 294 293 291 281
268 269 273 275 274 277 280 283 284 286 287 288 291 293 294 296 295 295 299 301 299 298 298 297 296 297 300 302 305 303 297 295 292 292 290 289 289 286
270 271 274 275 277 281 282 281 282 284 285 286 289 291 291 293 293 294 298 299 298 297 295 294 295 297 299 301 302 299 293 291 293 294 294 294 291 286
280 281 281 280 281 281 280 280 280 281 283 286 287 288 287 289 290 294 297 297 297 296 297 296 295 296 299 299 300 299 296 290 293 297 301 299 297 293
283 280 277 276 276 277 279 279 281 281 283 284 285 282 284 286 289 292 295 296 296 296 296 295 295 296 298 297 297 297 296 293 291 288 292 294 294 295